Location: Franzen
(48.6167°N, 15.3833°E)
Time: 13:28:05
(UTC+00:00)

Cosmos 2227 Rocket - Pass Details

Date: 22 April 2021
Orbit: 840 x 843 km, 71.0° (Epoch: 16 May)

Event Time Altitude Azimuth Distance (km) Brightness Sun altitude
Rises 20:35:23 0° 226° (SW) 3,391 5.3 -21.3°
Reaches altitude 10° 20:37:55 10° 232° (SW) 2,459 4.6 -21.6°
Maximum altitude 20:43:20 46° 306° (NW) 1,118 3.2 -22.1°
Drops below altitude 10° 20:48:47 10° 19° (NNE) 2,471 5.1 -22.6°
Sets 20:51:21 0° 26° (NNE) 3,409 5.8 -22.9°
